Location: Red Deer
(52.2681°N, 113.8112°W)
Time: 01:34:23
(UTC-07:00)

BlueWalker 3 - Pass Details

Date: 09 December 2022
Orbit: 499 x 517 km, 53.2° (Epoch: 29 January)

Event Time Altitude Azimuth Distance (km) Brightness Sun altitude
Rises 17:57:31 0° 287° (WNW) 2,633 6.5 -13.5°
Reaches altitude 10° 17:59:46 10° 282° (WNW) 1,740 5.6 -13.8°
Maximum altitude 18:03:35 49° 208° (SSW) 665 2.8 -14.4°
Drops below altitude 10° 18:07:21 10° 133° (SE) 1,720 4.4 -14.9°
Enters shadow 18:07:38 - 132° (SE) 1,829 4.5 -15.0°
